| time (UTC) | temp F | wind direction | speed MPH | gust MPH | rain 1hr in | rain 24hr in | rain mn in | humidity % | barometer mb |
| 20260508004231 | 61 | 176 | 0.0 | 0.0 | 0.00 | 0.01 | 0.00 | 91 | 1007.2 |
| 20260508003728 | 61 | 176 | 0.0 | 0.0 | 0.00 | 0.01 | 0.00 | 91 | 1007.1 |
| 20260508003226 | 61 | 176 | 0.0 | 0.0 | 0.00 | 0.01 | 0.00 | 91 | 1007.3 |
| 20260508002726 | 61 | 176 | 0.0 | 0.0 | 0.00 | 0.01 | 0.00 | 91 | 1007.3 |
| 20260508002228 | 61 | 176 | 0.0 | 0.0 | 0.00 | 0.01 | 0.00 | 91 | 1007.5 |
| 20260508001727 | 61 | 176 | 0.0 | 1.0 | 0.00 | 0.01 | 0.00 | 91 | 1007.6 |
| 20260508001226 | 62 | 173 | 0.0 | 1.0 | 0.00 | 0.01 | 0.00 | 91 | 1007.7 |
| 20260508000724 | 62 | 173 | 0.0 | 0.0 | 0.00 | 0.01 | 0.00 | 91 | 1007.8 |
| 20260508000227 | 62 | 173 | 0.0 | 1.0 | 0.00 | 0.01 | 0.00 | 91 | 1007.8 |
| 20260507235725 | 61 | 173 | 0.0 | 1.0 | 0.00 | 0.01 | 0.00 | 91 | 1007.9 |
| 20260507235225 | 61 | 173 | 0.0 | 0.0 | 0.00 | 0.01 | 0.00 | 91 | 1008.0 |
| 20260507235000 | 61 | 173 | 0.0 | 0.0 | 0.00 | 0.01 | 0.00 | 92 | 1007.9 |
| 20260507234224 | 61 | 173 | 0.0 | 0.0 | 0.00 | 0.01 | 0.00 | 92 | 1008.0 |
| 20260507233724 | 61 | 173 | 0.0 | 0.0 | 0.00 | 0.01 | 0.00 | 92 | 1008.0 |
| 20260507233502 | 61 | 173 | 0.0 | 0.0 | 0.00 | 0.01 | 0.00 | 92 | 1008.0 |
| 20260507232719 | 61 | 173 | 0.0 | 0.0 | 0.00 | 0.01 | 0.00 | 92 | 1008.0 |
| 20260507232220 | 61 | 173 | 0.0 | 0.0 | 0.00 | 0.01 | 0.00 | 92 | 1008.1 |
| 20260507231719 | 61 | 173 | 0.0 | 0.0 | 0.00 | 0.01 | 0.00 | 92 | 1008.2 |
| 20260507231456 | 61 | 172 | 0.0 | 0.0 | 0.00 | 0.01 | 0.00 | 91 | 1008.2 |
| 20260507230719 | 61 | 173 | 0.0 | 0.0 | 0.00 | 0.01 | 0.00 | 91 | 1008.2 |
| 20260507230457 | 61 | 173 | 0.0 | 0.0 | 0.00 | 0.01 | 0.00 | 92 | 1008.2 |
| 20260507225719 | 61 | 173 | 0.0 | 0.0 | 0.00 | 0.01 | 0.00 | 92 | 1008.3 |
| 20260507225218 | 61 | 173 | 0.0 | 0.0 | 0.00 | 0.01 | 0.00 | 92 | 1008.5 |
| 20260507224717 | 61 | 173 | 0.0 | 0.0 | 0.00 | 0.01 | 0.00 | 92 | 1008.4 |
| 20260507224214 | 61 | 173 | 0.0 | 0.0 | 0.00 | 0.01 | 0.00 | 92 | 1008.5 |
| 20260507223713 | 61 | 173 | 0.0 | 0.0 | 0.00 | 0.01 | 0.00 | 91 | 1008.6 |
| 20260507223210 | 61 | 173 | 0.0 | 0.0 | 0.00 | 0.01 | 0.00 | 92 | 1008.6 |
| 20260507222708 | 61 | 173 | 0.0 | 0.0 | 0.00 | 0.01 | 0.00 | 92 | 1008.8 |
| 20260507222206 | 61 | 173 | 0.0 | 0.0 | 0.00 | 0.01 | 0.00 | 92 | 1008.7 |
| 20260507221703 | 61 | 173 | 0.0 | 0.0 | 0.00 | 0.01 | 0.00 | 92 | 1008.7 |
| 20260507221202 | 61 | 173 | 0.0 | 0.0 | 0.00 | 0.01 | 0.00 | 91 | 1008.7 |
| 20260507220700 | 61 | 173 | 0.0 | 0.0 | 0.00 | 0.01 | 0.00 | 92 | 1008.7 |
| 20260507220158 | 61 | 173 | 0.0 | 0.0 | 0.00 | 0.01 | 0.00 | 92 | 1008.7 |
| 20260507215658 | 60 | 173 | 0.0 | 0.0 | 0.00 | 0.01 | 0.01 | 91 | 1008.6 |
| 20260507215157 | 60 | 173 | 0.0 | 0.0 | 0.00 | 0.01 | 0.01 | 91 | 1008.7 |
| 20260507214932 | 61 | 172 | 0.0 | 0.0 | 0.00 | 0.01 | 0.01 | 91 | 1008.8 |
| 20260507214157 | 61 | 172 | 0.0 | 0.0 | 0.00 | 0.01 | 0.01 | 91 | 1008.8 |
| 20260507213703 | 61 | 172 | 0.0 | 0.0 | 0.00 | 0.01 | 0.01 | 91 | 1008.8 |
| 20260507213201 | 61 | 172 | 0.0 | 0.0 | 0.00 | 0.01 | 0.01 | 91 | 1008.8 |
| 20260507212658 | 61 | 173 | 0.0 | 0.0 | 0.00 | 0.01 | 0.01 | 91 | 1008.8 |
| 20260507212423 | 61 | 173 | 0.0 | 1.0 | 0.00 | 0.02 | 0.01 | 91 | 1008.9 |
| 20260507211658 | 61 | 283 | 0.0 | 1.0 | 0.00 | 0.02 | 0.01 | 91 | 1008.8 |
| 20260507211157 | 61 | 283 | 0.0 | 0.0 | 0.00 | 0.02 | 0.01 | 91 | 1008.8 |
| 20260507210929 | 61 | 283 | 0.0 | 0.0 | 0.00 | 0.02 | 0.01 | 91 | 1008.8 |
| 20260507210151 | 61 | 283 | 0.0 | 0.0 | 0.00 | 0.02 | 0.01 | 91 | 1008.8 |
| 20260507205649 | 61 | 283 | 0.0 | 1.0 | 0.00 | 0.02 | 0.01 | 91 | 1008.9 |
| 20260507205419 | 61 | 283 | 0.0 | 1.0 | 0.00 | 0.02 | 0.01 | 91 | 1008.8 |
| 20260507204649 | 61 | 283 | 0.0 | 0.0 | 0.00 | 0.02 | 0.01 | 91 | 1008.8 |
| 20260507204149 | 61 | 283 | 0.0 | 0.0 | 0.00 | 0.02 | 0.01 | 90 | 1008.9 |
| 20260507203647 | 60 | 283 | 0.0 | 1.0 | 0.00 | 0.02 | 0.01 | 90 | 1008.8 |
| 20260507203145 | 61 | 283 | 0.0 | 1.0 | 0.00 | 0.02 | 0.01 | 90 | 1008.7 |
| 20260507202645 | 61 | 286 | 0.0 | 0.0 | 0.00 | 0.02 | 0.01 | 90 | 1008.8 |
| 20260507202145 | 61 | 286 | 0.0 | 0.0 | 0.00 | 0.02 | 0.01 | 89 | 1009.0 |
| 20260507201644 | 61 | 286 | 0.0 | 0.0 | 0.00 | 0.02 | 0.01 | 89 | 1009.1 |
| 20260507201141 | 61 | 286 | 0.0 | 0.0 | 0.00 | 0.02 | 0.01 | 90 | 1009.1 |
| 20260507200912 | 61 | 286 | 0.0 | 0.0 | 0.00 | 0.02 | 0.01 | 89 | 1009.1 |
| 20260507200136 | 62 | 286 | 0.0 | 1.0 | 0.00 | 0.02 | 0.01 | 89 | 1009.2 |
| 20260507195632 | 62 | 286 | 0.0 | 1.0 | 0.00 | 0.02 | 0.01 | 88 | 1009.2 |
| 20260507195131 | 62 | 146 | 0.0 | 0.0 | 0.00 | 0.02 | 0.01 | 88 | 1009.3 |
| 20260507194629 | 62 | 214 | 0.0 | 0.0 | 0.00 | 0.02 | 0.01 | 88 | 1009.3 |
| 20260507194123 | 62 | 214 | 0.0 | 0.0 | 0.00 | 0.02 | 0.01 | 88 | 1009.3 |
| 20260507193618 | 62 | 214 | 0.0 | 0.0 | 0.00 | 0.02 | 0.01 | 88 | 1009.3 |
| 20260507193119 | 63 | 215 | 0.0 | 0.0 | 0.00 | 0.02 | 0.01 | 87 | 1009.3 |
| 20260507192619 | 63 | 214 | 0.0 | 0.0 | 0.00 | 0.02 | 0.01 | 88 | 1009.3 |
| 20260507192117 | 63 | 214 | 0.0 | 0.0 | 0.00 | 0.02 | 0.01 | 88 | 1009.3 |
| 20260507191614 | 63 | 214 | 0.0 | 0.0 | 0.00 | 0.02 | 0.01 | 88 | 1009.3 |
| 20260507191340 | 63 | 233 | 0.0 | 0.0 | 0.00 | 0.02 | 0.01 | 88 | 1009.3 |
| 20260507190611 | 63 | 233 | 0.0 | 0.0 | 0.00 | 0.02 | 0.01 | 88 | 1009.3 |
| 20260507190109 | 63 | 233 | 0.0 | 0.0 | 0.00 | 0.02 | 0.01 | 88 | 1009.1 |
| 20260507185609 | 63 | 277 | 0.0 | 0.0 | 0.00 | 0.02 | 0.01 | 88 | 1009.1 |
| 20260507185110 | 63 | 278 | 0.0 | 1.0 | 0.00 | 0.02 | 0.01 | 88 | 1009.2 |
| 20260507184607 | 63 | 269 | 0.0 | 2.0 | 0.00 | 0.02 | 0.01 | 87 | 1009.0 |
| 20260507184104 | 64 | 282 | 0.0 | 2.0 | 0.00 | 0.02 | 0.01 | 87 | 1009.1 |
| 20260507183605 | 64 | 279 | 0.0 | 1.0 | 0.00 | 0.02 | 0.01 | 87 | 1009.1 |
| 20260507183103 | 64 | 270 | 0.0 | 1.0 | 0.00 | 0.02 | 0.01 | 87 | 1009.2 |
| 20260507182603 | 64 | 258 | 0.0 | 1.0 | 0.00 | 0.02 | 0.01 | 86 | 1009.3 |
| 20260507182103 | 64 | 258 | 0.0 | 1.0 | 0.00 | 0.02 | 0.01 | 86 | 1009.3 |
| 20260507181602 | 65 | 257 | 0.0 | 1.0 | 0.00 | 0.02 | 0.01 | 85 | 1009.2 |
| 20260507181332 | 65 | 266 | 0.0 | 2.0 | 0.00 | 0.02 | 0.01 | 85 | 1009.3 |
| 20260507180603 | 65 | 243 | 0.0 | 2.0 | 0.00 | 0.02 | 0.01 | 85 | 1009.4 |
| 20260507180335 | 65 | 252 | 1.0 | 2.0 | 0.00 | 0.02 | 0.01 | 85 | 1009.4 |
| 20260507175832 | 65 | 244 | 1.0 | 2.0 | 0.00 | 0.02 | 0.01 | 84 | 1009.4 |
| 20260507175102 | 66 | 281 | 1.0 | 3.0 | 0.00 | 0.02 | 0.01 | 84 | 1009.4 |
| 20260507174602 | 66 | 267 | 1.0 | 3.0 | 0.00 | 0.02 | 0.01 | 84 | 1009.5 |
| 20260507174102 | 66 | 259 | 1.0 | 3.0 | 0.00 | 0.02 | 0.01 | 83 | 1009.7 |
| 20260507173603 | 66 | 266 | 1.0 | 3.0 | 0.00 | 0.02 | 0.01 | 83 | 1009.6 |
| 20260507173102 | 66 | 222 | 2.0 | 4.0 | 0.00 | 0.02 | 0.01 | 83 | 1009.6 |
| 20260507172602 | 66 | 259 | 2.0 | 5.0 | 0.00 | 0.02 | 0.01 | 83 | 1009.6 |
| 20260507172104 | 66 | 259 | 2.0 | 5.0 | 0.00 | 0.02 | 0.01 | 83 | 1009.7 |
| 20260507171603 | 67 | 264 | 2.0 | 4.0 | 0.00 | 0.02 | 0.01 | 82 | 1009.7 |
| 20260507171058 | 67 | 282 | 2.0 | 4.0 | 0.00 | 0.02 | 0.01 | 82 | 1009.7 |
| 20260507170552 | 67 | 254 | 2.0 | 5.0 | 0.00 | 0.02 | 0.01 | 82 | 1009.7 |
| 20260507170317 | 67 | 289 | 2.0 | 6.0 | 0.00 | 0.02 | 0.01 | 82 | 1009.7 |
| 20260507165545 | 67 | 262 | 2.0 | 6.0 | 0.00 | 0.02 | 0.01 | 82 | 1009.7 |
| 20260507165100 | 67 | 271 | 2.0 | 4.0 | 0.00 | 0.02 | 0.01 | 82 | 1009.7 |
| 20260507165053 | 67 | 244 | 2.0 | 4.0 | 0.00 | 0.02 | 0.01 | 82 | 1009.7 |
| 20260507164045 | 67 | 235 | 2.0 | 5.0 | 0.00 | 0.02 | 0.01 | 81 | 1009.8 |
| 20260507163545 | 67 | 252 | 2.0 | 5.0 | 0.00 | 0.02 | 0.01 | 82 | 1009.7 |
| 20260507163045 | 67 | 244 | 3.0 | 6.0 | 0.00 | 0.02 | 0.01 | 81 | 1009.7 |
| 20260507162542 | 67 | 273 | 3.0 | 6.0 | 0.00 | 0.02 | 0.01 | 81 | 1009.6 |
| 20260507162042 | 67 | 224 | 3.0 | 6.0 | 0.00 | 0.02 | 0.01 | 81 | 1009.7 |
| 20260507161542 | 67 | 257 | 3.0 | 7.0 | 0.00 | 0.02 | 0.01 | 81 | 1009.6 |
| 20260507161042 | 67 | 266 | 3.0 | 7.0 | 0.00 | 0.02 | 0.01 | 81 | 1009.8 |
| 20260507160542 | 68 | 243 | 3.0 | 6.0 | 0.00 | 0.02 | 0.01 | 81 | 1009.8 |
| 20260507160041 | 68 | 243 | 4.0 | 8.0 | 0.00 | 0.02 | 0.01 | 81 | 1009.8 |
| 20260507155541 | 68 | 246 | 4.0 | 8.0 | 0.00 | 0.02 | 0.01 | 80 | 1009.9 |
| 20260507155041 | 68 | 290 | 4.0 | 7.0 | 0.00 | 0.02 | 0.01 | 80 | 1009.9 |
| 20260507154540 | 68 | 247 | 3.0 | 7.0 | 0.00 | 0.02 | 0.01 | 79 | 1009.8 |
| 20260507154041 | 68 | 297 | 4.0 | 7.0 | 0.00 | 0.02 | 0.01 | 80 | 1009.8 |
| 20260507153541 | 68 | 258 | 4.0 | 7.0 | 0.00 | 0.02 | 0.01 | 79 | 1009.8 |
| 20260507153041 | 68 | 215 | 4.0 | 7.0 | 0.00 | 0.02 | 0.01 | 79 | 1009.9 |
| 20260507152540 | 69 | 250 | 4.0 | 7.0 | 0.00 | 0.02 | 0.01 | 78 | 1009.9 |
| 20260507152041 | 69 | 221 | 4.0 | 7.0 | 0.00 | 0.02 | 0.01 | 78 | 1009.9 |
| 20260507151540 | 69 | 231 | 4.0 | 7.0 | 0.00 | 0.02 | 0.01 | 78 | 1009.8 |
| 20260507151311 | 69 | 239 | 5.0 | 7.0 | 0.00 | 0.02 | 0.01 | 77 | 1009.9 |
| 20260507150541 | 69 | 229 | 4.0 | 8.0 | 0.00 | 0.02 | 0.01 | 77 | 1010.0 |
| 20260507150040 | 69 | 257 | 3.0 | 8.0 | 0.00 | 0.02 | 0.01 | 77 | 1010.0 |
| 20260507145540 | 69 | 245 | 4.0 | 8.0 | 0.00 | 0.02 | 0.01 | 76 | 1010.1 |
| 20260507145040 | 69 | 231 | 5.0 | 9.0 | 0.00 | 0.02 | 0.01 | 77 | 1010.2 |
| 20260507144540 | 69 | 205 | 5.0 | 9.0 | 0.00 | 0.02 | 0.01 | 76 | 1010.1 |
| 20260507144040 | 69 | 213 | 4.0 | 8.0 | 0.00 | 0.02 | 0.01 | 77 | 1010.1 |
| 20260507143540 | 69 | 196 | 4.0 | 7.0 | 0.00 | 0.02 | 0.01 | 77 | 1010.1 |
| 20260507143040 | 69 | 265 | 4.0 | 7.0 | 0.00 | 0.02 | 0.01 | 77 | 1010.2 |
| 20260507142540 | 69 | 190 | 4.0 | 7.0 | 0.00 | 0.02 | 0.01 | 79 | 1010.2 |
| 20260507142040 | 68 | 238 | 4.0 | 9.0 | 0.00 | 0.02 | 0.01 | 78 | 1010.2 |
| 20260507141540 | 68 | 226 | 4.0 | 9.0 | 0.00 | 0.02 | 0.01 | 77 | 1010.2 |
| 20260507141040 | 69 | 226 | 4.0 | 8.0 | 0.00 | 0.02 | 0.01 | 76 | 1010.4 |
| 20260507140538 | 69 | 243 | 3.0 | 6.0 | 0.00 | 0.02 | 0.01 | 76 | 1010.4 |
| 20260507140039 | 69 | 217 | 3.0 | 6.0 | 0.00 | 0.02 | 0.01 | 75 | 1010.4 |
| 20260507135539 | 69 | 205 | 3.0 | 6.0 | 0.00 | 0.02 | 0.01 | 75 | 1010.5 |
| 20260507135033 | 70 | 250 | 3.0 | 6.0 | 0.00 | 0.02 | 0.01 | 74 | 1010.6 |
| 20260507134526 | 70 | 234 | 3.0 | 7.0 | 0.00 | 0.02 | 0.01 | 74 | 1010.7 |
| 20260507134026 | 71 | 255 | 3.0 | 7.0 | 0.00 | 0.02 | 0.01 | 73 | 1010.7 |
| 20260507133523 | 71 | 223 | 3.0 | 5.0 | 0.00 | 0.02 | 0.01 | 73 | 1010.8 |
| 20260507133024 | 71 | 266 | 3.0 | 7.0 | 0.00 | 0.02 | 0.01 | 73 | 1010.9 |
| 20260507132524 | 71 | 264 | 3.0 | 7.0 | 0.00 | 0.02 | 0.01 | 73 | 1011.1 |
| 20260507132253 | 70 | 222 | 3.0 | 7.0 | 0.00 | 0.02 | 0.01 | 73 | 1011.1 |
| 20260507131522 | 70 | 288 | 3.0 | 7.0 | 0.00 | 0.02 | 0.01 | 73 | 1011.2 |
| 20260507131022 | 69 | 263 | 3.0 | 5.0 | 0.00 | 0.02 | 0.01 | 73 | 1011.3 |
| 20260507130752 | 69 | 229 | 3.0 | 5.0 | 0.00 | 0.02 | 0.01 | 75 | 1011.2 |
| 20260507130022 | 69 | 240 | 3.0 | 7.0 | 0.00 | 0.02 | 0.01 | 76 | 1011.2 |
| 20260507125539 | 69 | 264 | 3.0 | 6.0 | 0.00 | 0.02 | 0.01 | 75 | 1011.2 |
| 20260507125532 | 69 | 285 | 2.0 | 7.0 | 0.00 | 0.02 | 0.01 | 74 | 1011.2 |
| 20260507124520 | 69 | 259 | 3.0 | 6.0 | 0.00 | 0.02 | 0.01 | 75 | 1011.3 |
| 20260507124017 | 69 | 229 | 2.0 | 6.0 | 0.00 | 0.02 | 0.01 | 73 | 1011.4 |
| 20260507123511 | 69 | 179 | 2.0 | 5.0 | 0.00 | 0.02 | 0.01 | 75 | 1011.5 |
| 20260507123005 | 69 | 208 | 2.0 | 5.0 | 0.00 | 0.02 | 0.01 | 74 | 1011.5 |
| 20260507122505 | 69 | 219 | 2.0 | 5.0 | 0.00 | 0.02 | 0.01 | 76 | 1011.7 |
| 20260507122004 | 68 | 258 | 3.0 | 7.0 | 0.00 | 0.02 | 0.01 | 75 | 1011.9 |
| 20260507121504 | 68 | 269 | 4.0 | 9.0 | 0.00 | 0.02 | 0.01 | 76 | 1011.7 |
| 20260507121003 | 68 | 210 | 4.0 | 9.0 | 0.00 | 0.02 | 0.01 | 75 | 1011.7 |
| 20260507120502 | 68 | 211 | 4.0 | 8.0 | 0.00 | 0.02 | 0.01 | 75 | 1011.7 |
| 20260507120005 | 68 | 181 | 3.0 | 9.0 | 0.00 | 0.02 | 0.01 | 76 | 1011.8 |
| 20260507115504 | 68 | 251 | 4.0 | 9.0 | 0.00 | 0.02 | 0.01 | 75 | 1011.8 |
| 20260507115002 | 68 | 209 | 4.0 | 8.0 | 0.00 | 0.02 | 0.01 | 75 | 1011.7 |
| 20260507114502 | 68 | 214 | 4.0 | 8.0 | 0.00 | 0.02 | 0.01 | 75 | 1011.9 |
| 20260507114003 | 68 | 210 | 4.0 | 8.0 | 0.00 | 0.02 | 0.01 | 74 | 1011.8 |
| 20260507113737 | 69 | 178 | 3.0 | 10.0 | 0.00 | 0.02 | 0.01 | 74 | 1011.9 |
| 20260507113005 | 69 | 137 | 4.0 | 10.0 | 0.00 | 0.02 | 0.01 | 73 | 1011.9 |
| 20260507112502 | 69 | 198 | 4.0 | 9.0 | 0.00 | 0.02 | 0.01 | 73 | 1012.0 |
| 20260507111958 | 69 | 220 | 4.0 | 9.0 | 0.00 | 0.02 | 0.01 | 73 | 1012.0 |
| 20260507111455 | 69 | 209 | 4.0 | 9.0 | 0.00 | 0.02 | 0.01 | 74 | 1012.0 |
| 20260507110958 | 69 | 209 | 5.0 | 9.0 | 0.00 | 0.02 | 0.01 | 74 | 1012.1 |
| 20260507110453 | 69 | 196 | 5.0 | 10.0 | 0.00 | 0.02 | 0.01 | 73 | 1012.1 |
| 20260507110231 | 69 | 222 | 5.0 | 10.0 | 0.00 | 0.02 | 0.01 | 73 | 1012.0 |
| 20260507105453 | 70 | 209 | 5.0 | 12.0 | 0.00 | 0.02 | 0.01 | 73 | 1012.0 |
| 20260507104952 | 70 | 215 | 5.0 | 12.0 | 0.00 | 0.02 | 0.01 | 73 | 1012.2 |
| 20260507104453 | 70 | 217 | 5.0 | 12.0 | 0.00 | 0.02 | 0.01 | 72 | 1012.2 |
| 20260507103952 | 71 | 200 | 5.0 | 10.0 | 0.00 | 0.02 | 0.01 | 72 | 1012.2 |
| 20260507103449 | 71 | 136 | 5.0 | 11.0 | 0.00 | 0.02 | 0.01 | 70 | 1012.2 |
| 20260507102950 | 71 | 207 | 5.0 | 11.0 | 0.00 | 0.02 | 0.01 | 70 | 1012.3 |
| 20260507102450 | 73 | 188 | 5.0 | 11.0 | 0.00 | 0.02 | 0.01 | 68 | 1012.2 |
| 20260507101950 | 74 | 201 | 4.0 | 10.0 | 0.00 | 0.02 | 0.01 | 67 | 1012.1 |
| 20260507101449 | 75 | 176 | 2.0 | 10.0 | 0.00 | 0.02 | 0.01 | 65 | 1012.1 |
| 20260507100949 | 74 | 260 | 2.0 | 4.0 | 0.00 | 0.02 | 0.01 | 62 | 1012.1 |
| 20260507100450 | 74 | 215 | 1.0 | 4.0 | 0.00 | 0.02 | 0.01 | 62 | 1012.0 |
| 20260507095944 | 74 | 330 | 0.0 | 1.0 | 0.00 | 0.02 | 0.01 | 61 | 1011.9 |
| 20260507095440 | 73 | 223 | 1.0 | 3.0 | 0.00 | 0.02 | 0.01 | 62 | 1011.9 |
| 20260507095217 | 73 | 345 | 1.0 | 3.0 | 0.00 | 0.02 | 0.01 | 64 | 1012.1 |
| 20260507094440 | 72 | 304 | 1.0 | 3.0 | 0.00 | 0.02 | 0.01 | 63 | 1012.1 |
| 20260507093946 | 71 | 92 | 2.0 | 6.0 | 0.00 | 0.02 | 0.01 | 66 | 1012.1 |
| 20260507093941 | 72 | 261 | 1.0 | 3.0 | 0.00 | 0.02 | 0.01 | 64 | 1012.1 |
| 20260507092937 | 71 | 114 | 3.0 | 7.0 | 0.00 | 0.02 | 0.01 | 65 | 1012.1 |
| 20260507092438 | 72 | 56 | 2.0 | 7.0 | 0.00 | 0.02 | 0.01 | 66 | 1012.0 |
| 20260507091938 | 72 | 6 | 2.0 | 5.0 | 0.00 | 0.02 | 0.01 | 66 | 1012.0 |
| 20260507091716 | 72 | 44 | 1.0 | 5.0 | 0.00 | 0.02 | 0.01 | 66 | 1012.0 |
| 20260507090936 | 72 | 352 | 1.0 | 4.0 | 0.00 | 0.02 | 0.01 | 66 | 1011.9 |
| 20260507090436 | 71 | 329 | 2.0 | 4.0 | 0.00 | 0.02 | 0.01 | 67 | 1012.0 |
| 20260507085933 | 71 | 283 | 1.0 | 4.0 | 0.00 | 0.02 | 0.01 | 68 | 1011.9 |
| 20260507085711 | 71 | 266 | 1.0 | 6.0 | 0.00 | 0.02 | 0.01 | 67 | 1012.0 |
| 20260507084933 | 70 | 27 | 2.0 | 7.0 | 0.00 | 0.02 | 0.01 | 66 | 1011.9 |
| 20260507084435 | 71 | 328 | 2.0 | 7.0 | 0.00 | 0.02 | 0.01 | 66 | 1012.0 |
| 20260507083934 | 71 | 54 | 2.0 | 4.0 | 0.00 | 0.02 | 0.01 | 66 | 1011.9 |
| 20260507083433 | 71 | 337 | 1.0 | 4.0 | 0.00 | 0.02 | 0.01 | 67 | 1011.9 |
| 20260507083216 | 70 | 211 | 1.0 | 3.0 | 0.00 | 0.02 | 0.01 | 66 | 1011.9 |
| 20260507082934 | 71 | 218 | 1.0 | 3.0 | 0.00 | 0.02 | 0.01 | 66 | 1011.9 |
| 20260507081934 | 70 | 81 | 1.0 | 6.0 | 0.00 | 0.02 | 0.01 | 67 | 1012.1 |
| 20260507081432 | 70 | 333 | 2.0 | 6.0 | 0.00 | 0.02 | 0.01 | 68 | 1012.2 |
| 20260507080932 | 70 | 9 | 2.0 | 5.0 | 0.00 | 0.02 | 0.01 | 67 | 1012.1 |
| 20260507080709 | 69 | 302 | 3.0 | 5.0 | 0.00 | 0.02 | 0.01 | 67 | 1012.1 |
| 20260507075931 | 69 | 301 | 3.0 | 5.0 | 0.00 | 0.02 | 0.01 | 68 | 1012.1 |
| 20260507075433 | 69 | 330 | 2.0 | 5.0 | 0.00 | 0.02 | 0.01 | 69 | 1012.1 |
| 20260507074932 | 69 | 326 | 2.0 | 6.0 | 0.00 | 0.02 | 0.01 | 68 | 1012.2 |
| 20260507074432 | 69 | 343 | 2.0 | 6.0 | 0.00 | 0.02 | 0.01 | 69 | 1012.2 |
| 20260507074211 | 69 | 324 | 2.0 | 6.0 | 0.00 | 0.02 | 0.01 | 72 | 1012.2 |
| 20260507073431 | 68 | 346 | 2.0 | 6.0 | 0.00 | 0.02 | 0.01 | 70 | 1012.3 |
| 20260507073209 | 68 | 40 | 3.0 | 5.0 | 0.00 | 0.02 | 0.01 | 69 | 1012.4 |
| 20260507072434 | 67 | 20 | 3.0 | 6.0 | 0.00 | 0.02 | 0.01 | 71 | 1012.4 |
| 20260507072211 | 67 | 29 | 3.0 | 7.0 | 0.00 | 0.02 | 0.01 | 71 | 1012.4 |
| 20260507071429 | 67 | 27 | 2.0 | 7.0 | 0.00 | 0.02 | 0.01 | 72 | 1012.5 |
| 20260507070930 | 67 | 330 | 3.0 | 5.0 | 0.00 | 0.03 | 0.01 | 72 | 1012.6 |
| 20260507070430 | 67 | 47 | 3.0 | 5.0 | 0.00 | 0.03 | 0.01 | 72 | 1012.5 |
| 20260507065930 | 67 | 51 | 2.0 | 5.0 | 0.00 | 0.03 | 0.01 | 73 | 1012.5 |
| 20260507065430 | 67 | 307 | 2.0 | 4.0 | 0.00 | 0.03 | 0.01 | 73 | 1012.4 |
| 20260507064930 | 67 | 16 | 2.0 | 5.0 | 0.00 | 0.03 | 0.01 | 72 | 1012.4 |
| 20260507064430 | 66 | 341 | 2.0 | 5.0 | 0.00 | 0.03 | 0.01 | 72 | 1012.4 |
| 20260507063930 | 66 | 48 | 2.0 | 4.0 | 0.00 | 0.03 | 0.01 | 75 | 1012.3 |
| 20260507063429 | 66 | 46 | 2.0 | 4.0 | 0.00 | 0.03 | 0.01 | 75 | 1012.3 |
| 20260507062923 | 66 | 38 | 2.0 | 5.0 | 0.00 | 0.03 | 0.01 | 76 | 1012.3 |
| 20260507062421 | 65 | 320 | 2.0 | 5.0 | 0.00 | 0.04 | 0.01 | 77 | 1012.4 |
| 20260507061921 | 65 | 35 | 2.0 | 4.0 | 0.00 | 0.04 | 0.01 | 76 | 1012.4 |
| 20260507061701 | 65 | 32 | 2.0 | 4.0 | 0.00 | 0.04 | 0.01 | 77 | 1012.4 |
| 20260507060922 | 65 | 42 | 3.0 | 5.0 | 0.00 | 0.05 | 0.01 | 79 | 1012.3 |
| 20260507060422 | 64 | 44 | 3.0 | 5.0 | 0.00 | 0.05 | 0.01 | 78 | 1012.4 |
| 20260507055920 | 64 | 43 | 2.0 | 3.0 | 0.00 | 0.05 | 0.01 | 80 | 1012.2 |
| 20260507055708 | 64 | 39 | 0.0 | 3.0 | 0.00 | 0.05 | 0.01 | 82 | 1012.2 |
| 20260507054927 | 62 | 27 | 1.0 | 2.0 | 0.00 | 0.06 | 0.01 | 85 | 1012.2 |
| 20260507054920 | 63 | 27 | 0.0 | 2.0 | 0.00 | 0.06 | 0.01 | 84 | 1012.3 |
| 20260507053915 | 62 | 21 | 1.0 | 2.0 | 0.00 | 0.06 | 0.01 | 87 | 1012.3 |
| 20260507053416 | 61 | 33 | 0.0 | 2.0 | 0.00 | 0.06 | 0.01 | 88 | 1012.3 |
| 20260507052913 | 60 | 30 | 0.0 | 1.0 | 0.00 | 0.06 | 0.01 | 88 | 1012.3 |
| 20260507052414 | 60 | 5 | 0.0 | 2.0 | 0.00 | 0.07 | 0.01 | 88 | 1012.2 |
| 20260507051910 | 59 | 4 | 1.0 | 3.0 | 0.00 | 0.07 | 0.01 | 88 | 1012.2 |
| 20260507051411 | 59 | 6 | 1.0 | 3.0 | 0.00 | 0.07 | 0.01 | 88 | 1012.2 |
| 20260507050907 | 59 | 351 | 2.0 | 4.0 | 0.00 | 0.07 | 0.01 | 88 | 1012.2 |
| 20260507050407 | 59 | 352 | 1.0 | 4.0 | 0.00 | 0.07 | 0.01 | 88 | 1012.2 |
| 20260507045908 | 59 | 7 | 0.0 | 2.0 | 0.00 | 0.07 | 0.01 | 89 | 1012.2 |
| 20260507045405 | 59 | 332 | 0.0 | 0.0 | 0.00 | 0.07 | 0.01 | 89 | 1012.1 |
| 20260507044901 | 59 | 332 | 0.0 | 0.0 | 0.00 | 0.07 | 0.01 | 89 | 1012.1 |
| 20260507044401 | 59 | 332 | 0.0 | 0.0 | 0.00 | 0.07 | 0.01 | 89 | 1012.0 |
| 20260507043901 | 59 | 332 | 0.0 | 1.0 | 0.00 | 0.07 | 0.01 | 89 | 1012.0 |
| 20260507043400 | 58 | 332 | 0.0 | 2.0 | 0.00 | 0.07 | 0.01 | 89 | 1012.2 |
| 20260507042900 | 58 | 347 | 0.0 | 2.0 | 0.00 | 0.07 | 0.01 | 88 | 1012.1 |
| 20260507042357 | 58 | 347 | 0.0 | 1.0 | 0.00 | 0.07 | 0.01 | 88 | 1012.0 |
| 20260507041855 | 58 | 67 | 0.0 | 0.0 | 0.01 | 0.07 | 0.01 | 88 | 1012.1 |
| 20260507041353 | 58 | 67 | 0.0 | 0.0 | 0.01 | 0.07 | 0.01 | 88 | 1012.0 |
| 20260507040852 | 58 | 67 | 0.0 | 0.0 | 0.01 | 0.07 | 0.01 | 87 | 1012.0 |
| 20260507040349 | 58 | 67 | 0.0 | 0.0 | 0.01 | 0.07 | 0.01 | 87 | 1012.0 |
| 20260507035847 | 58 | 67 | 0.0 | 1.0 | 0.01 | 0.07 | 0.01 | 87 | 1011.9 |
| 20260507035343 | 59 | 67 | 0.0 | 1.0 | 0.01 | 0.07 | 0.01 | 87 | 1011.9 |
| 20260507034835 | 59 | 67 | 0.0 | 1.0 | 0.01 | 0.07 | 0.01 | 87 | 1011.9 |
| 20260507034336 | 59 | 67 | 1.0 | 1.0 | 0.01 | 0.07 | 0.01 | 87 | 1011.9 |
| 20260507033833 | 59 | 67 | 1.0 | 1.0 | 0.01 | 0.07 | 0.01 | 86 | 1011.9 |
| 20260507033331 | 59 | 67 | 0.0 | 1.0 | 0.01 | 0.07 | 0.01 | 86 | 1011.9 |
| 20260507032830 | 59 | 67 | 0.0 | 2.0 | 0.01 | 0.07 | 0.01 | 86 | 1011.9 |
| 20260507032331 | 59 | 42 | 0.0 | 2.0 | 0.01 | 0.07 | 0.00 | 86 | 1011.9 |
| 20260507031831 | 59 | 60 | 0.0 | 2.0 | 0.00 | 0.06 | 0.00 | 86 | 1011.9 |
| 20260507031331 | 59 | 60 | 0.0 | 2.0 | 0.00 | 0.06 | 0.00 | 86 | 1011.8 |
| 20260507030836 | 59 | 60 | 0.0 | 1.0 | 0.00 | 0.06 | 0.00 | 86 | 1011.8 |
| 20260507030340 | 59 | 60 | 1.0 | 2.0 | 0.00 | 0.06 | 0.00 | 86 | 1011.7 |
| 20260507030336 | 59 | 60 | 0.0 | 1.0 | 0.00 | 0.06 | 0.00 | 86 | 1011.8 |
| 20260507025330 | 59 | 60 | 0.0 | 2.0 | 0.00 | 0.06 | 0.00 | 86 | 1011.7 |
| 20260507025106 | 59 | 60 | 0.0 | 1.0 | 0.00 | 0.06 | 0.00 | 86 | 1011.8 |
| 20260507024331 | 59 | 60 | 0.0 | 0.0 | 0.00 | 0.06 | 0.00 | 85 | 1011.9 |
| 20260507023831 | 59 | 60 | 0.0 | 0.0 | 0.00 | 0.06 | 0.00 | 85 | 1011.9 |
| 20260507023330 | 59 | 60 | 0.0 | 1.0 | 0.00 | 0.06 | 0.00 | 84 | 1011.9 |
| 20260507022830 | 59 | 60 | 0.0 | 1.0 | 0.00 | 0.06 | 0.00 | 84 | 1011.9 |
| 20260507022329 | 60 | 60 | 1.0 | 3.0 | 0.00 | 0.06 | 0.00 | 84 | 1011.9 |
| 20260507021826 | 59 | 60 | 1.0 | 4.0 | 0.00 | 0.06 | 0.00 | 84 | 1011.8 |
| 20260507021603 | 59 | 14 | 0.0 | 1.0 | 0.00 | 0.06 | 0.00 | 85 | 1012.0 |
| 20260507021325 | 59 | 40 | 1.0 | 4.0 | 0.00 | 0.06 | 0.00 | 84 | 1011.9 |
| 20260507020321 | 59 | 4 | 0.0 | 1.0 | 0.00 | 0.06 | 0.00 | 85 | 1011.9 |
| 20260507015818 | 59 | 39 | 0.0 | 0.0 | 0.00 | 0.06 | 0.00 | 85 | 1011.9 |
| 20260507015316 | 59 | 39 | 0.0 | 1.0 | 0.00 | 0.06 | 0.00 | 85 | 1011.9 |
| 20260507014814 | 59 | 39 | 0.0 | 1.0 | 0.00 | 0.06 | 0.00 | 85 | 1011.8 |
| 20260507014545 | 59 | 39 | 0.0 | 1.0 | 0.00 | 0.06 | 0.00 | 85 | 1011.9 |
| 20260507014046 | 59 | 40 | 0.0 | 1.0 | 0.00 | 0.06 | 0.00 | 85 | 1011.8 |
| 20260507013312 | 59 | 52 | 0.0 | 1.0 | 0.00 | 0.06 | 0.00 | 85 | 1011.8 |
| 20260507012812 | 59 | 52 | 1.0 | 2.0 | 0.00 | 0.06 | 0.00 | 85 | 1011.9 |
| 20260507012313 | 59 | 56 | 0.0 | 2.0 | 0.00 | 0.06 | 0.00 | 86 | 1011.8 |
| 20260507011810 | 59 | 38 | 0.0 | 1.0 | 0.00 | 0.06 | 0.00 | 86 | 1011.8 |
| 20260507011307 | 59 | 49 | 0.0 | 1.0 | 0.00 | 0.06 | 0.00 | 86 | 1011.9 |
| 20260507011103 | 59 | 49 | 1.0 | 6.0 | 0.00 | 0.06 | 0.00 | 87 | 1011.8 |
| 20260507010818 | 59 | 49 | 1.0 | 2.0 | 0.00 | 0.06 | 0.00 | 86 | 1011.9 |
| 20260507010033 | 59 | 8 | 1.0 | 6.0 | 0.00 | 0.06 | 0.00 | 87 | 1011.9 |
| 20260507005308 | 59 | 58 | 0.0 | 1.0 | 0.00 | 0.06 | 0.00 | 88 | 1012.0 |
| 20260507004806 | 59 | 58 | 0.0 | 1.0 | 0.00 | 0.06 | 0.00 | 88 | 1011.9 |